sat.trackr.live / text

‹ back to catalog

KUIPER-00260

NORAD 67787 · 2026-030Z

PAYLOAD ACTIVE UNKNOWN

§ Identity

Operator
Country
US
Launch date
2026-02-12
Launch site
FRGUI
Launch vehicle
Mass (kg)
RCS (m²)

External: N2YO · Heavens-Above · Gunter

§ Orbital elements

Epoch: 2026-05-25T04:00:03.998880Z

Period
97.54 min
Inclination
51.9000°
Eccentricity
0.0002263
Mean motion
14.76381939 rev/d
Perigee alt
639.2 km
Apogee alt
642.4 km
Semi-major
7,018.9 km
B*
3.2288e-3
RAAN
217.0306°
Arg perigee
131.4685°
Mean anomaly
43.4116°
Rev number
450

§ Raw data

KUIPER-002601 67787U 26030Z   26145.16671295  .00022496  00000+0  32288-2 0  99982 67787  51.9000 217.0306 0002263 131.4685  43.4116 14.76381939  4501

JSON: /api/v1/satellites/67787 · /tle

For live sub-satellite position, see the globe view (requires WebGL).

§ Visibility from observer

Set your observer location to see the next 7 days of passes ≥ 10°. The values pass through the URL so the page stays shareable.

No JS? Fill the form by hand. The geolocation button needs JavaScript.